Location: Zagreb
(45.8000°N, 16.0000°E)
Time: 02:15:11
(UTC+02:00)

Transit 2A Rocket - Pass Details

Date: 24 January 2022
Orbit: 592 x 909 km, 66.7° (Epoch: 26 May)

Event Time Altitude Azimuth Distance (km) Brightness Sun altitude
Rises 21:45:33 0° 280° (W) 3,538 9.0 -50.3°
Enters shadow 21:48:39 - 298° (WNW) 2,758 8.4 -50.8°
Reaches altitude 10° 21:49:28 10° 304° (NW) 2,600 - -50.9°
Maximum altitude 21:52:35 14° 336° (NNW) 2,298 - -51.3°
Drops below altitude 10° 21:55:42 10° 7° (N) 2,569 - -51.8°
Sets 21:59:32 0° 32° (NNE) 3,467 - -52.4°
